Погода в Биеле

Черногория     42°27′13″N   18°39′16″E
темп.,
°C
ветер,
м/с
пор.,
м/с
влажн.,
%
обл.,
%
осадки,
мм/ч
давл.,
гПа
погр.,
м
11 апреля, вс
вс1123:00+4св11820 0.0 102613
02:00+3св11815 0.0 102512
05:00+3св22755 0.0 102516
08:00+7всв115941 0.0 1024126
11:00+11ююз22445 0.0 1023820
14:00+12юз3251100 0.0 1023860
17:00+11ююз225655 0.0 1023563
20:00+7всв227495 0.0 102427
12 апреля, пн
пн1223:00+6ссв117445 0.0 102511
02:00+5ссв116830 0.0 102512
05:00+5св226398 0.0 102417
08:00+9в115438 0.0 1023119
11:00+13ююз344711 0.0 1022797
14:00+14ююз344785 0.0 1021919
17:00+12ююз344699 0.0 1020738
20:00+7юв1162100 0.0 102218
13 апреля, вт
вт1323:00+7всв2259100 0.0 102120
02:00+7юв1259100 0.0 102131
05:00+7всв2373100 0.0 1020109
08:00+7в2376100 0.1 1020145
11:00+9вюв247297 0.3 1018347
14:00+8ююв2588100 0.7 1018605
17:00+7вюв1296100 4.3 1017232
20:00+7в1298100 7.9 1016110
14 апреля, ср
ср1423:00+7всв239785 2.9 1016134
02:00+5всв119436 6.2 101561
05:00+4ссв11947 2.3 101418
08:00+7зсз008120 2.9 101492
11:00+9ююз227093 0.7 10141060
14:00+8юз448184 2.4 1014821
17:00+6юз338687 1.9 1015644
20:00+5юз129299 2.9 1017209
15 апреля, чт
чт1523:00+4св0192100 1.3 1018126
02:00+3св2398100 2.8 1018167
05:00+1ссв3491100 0.2 1019224
08:00+2св338662 0.3 1020262
11:00+7ссв116784 0.1 10191120
14:00+7зюз126769 0.8 1019972
17:00+7зюз227442 1.3 1019739
20:00+3сз119111 1.9 102011